Regional Weather Roundup
Issued by NWS Sioux Falls, SD

Home | Current Version | Previous Version | Graphics & Text | Print | Product List | Glossary On
Versions: 1 2 3 4 5 6 7 8 9 10 11 12 13 14 15 16 17 18 19 20 21 22 23 24 25 26 27 28 29 30 31 32 33 34 35 36 37 38 39 40 41 42 43 44 45 46 47 48 49 50
000
ASUS43 KFSD 300510
RWRFSD

WEATHER ROUNDUP FOR SE SOUTH DAKOTA/SW MINNESOTA/NW IOWA
NATIONAL WEATHER SERVICE SIOUX FALLS SD
1200 AM CDT MON MAR 30 2015

NOTE: "FAIR" INDICATES FEW OR NO CLOUDS BELOW 12,000 FEET WITH NO
SIGNIFICANT WEATHER AND OR OBSTRUCTIONS TO VISIBILITY.


SDZ038>040-050-052>070-300600-
SOUTHEAST SOUTH DAKOTA

CITY           SKY/WX    TMP DP  RH WIND       PRES   REMARKS
CHAMBERLAIN    CLOUDY    40  24  53 S3        30.04S
HURON          PTCLDY    41  23  48 S5        30.01F
MADISON        FAIR      39  19  45 W7        30.02F
MITCHELL       PTCLDY    45  23  42 SW5       30.04F
SIOUX FALLS    CLEAR     35  21  56 SW5       30.04F
WINNER         FAIR      51  22  31 SW9       30.04F
YANKTON        CLEAR     45  19  36 SW7       30.07F
$$

MNZ071-072-080-081-089-090-097-098-300600-
SOUTHWEST MINNESOTA

CITY           SKY/WX    TMP DP  RH WIND       PRES   REMARKS
FAIRMONT       CLEAR     37  21  52 W8        30.02S
JACKSON        PTCLDY    37  23  56 SW5       30.03F
LUVERNE        CLEAR     34  27  75 CALM      30.04F
MARSHALL       CLEAR     39  23  52 SW13      30.00F
MONTEVIDEO     MOCLDY    39  27  60 W6        29.98F
PIPESTONE      CLEAR     36  21  55 SW5       30.02F
REDWOOD FALLS  CLEAR     40  25  55 SW9       29.98F
TRACY          CLEAR     39  26  59 SW9       30.01F
WINDOM         CLEAR     36  25  64 CALM      30.02F
WORTHINGTON    CLEAR     36  21  55 SW7       30.05S
$$

IAZ001>003-012>014-020>022-031-032-NEZ013-014-SDZ071-300600-
NORTHWEST IOWA

CITY           SKY/WX    TMP DP  RH WIND       PRES   REMARKS
CHEROKEE       CLEAR     31  24  75 CALM      30.08S
DENISON        CLEAR     34  23  64 SE6       30.08F WCI  29
ESTHERVILLE    CLEAR     31  23  72 W8        30.03F WCI  23
LE MARS        CLEAR     32  23  69 CALM      30.08F
ORANGE CITY    CLEAR     41  21  45 S3        30.06F
SHELDON        CLEAR     28  21  74 CALM      30.05S
SIOUX CITY     CLEAR     34  21  59 CALM      30.09S
SPENCER        CLEAR     30  23  75 SW3       30.05F
STORM LAKE     CLEAR     45  21  39 W5        30.08F
$$

ABBREVIATIONS USED IN REMARKS
   TC - TEMPERATURE IN CELSIUS
  WCI - WIND CHILL INDEX
   HX - HEAT INDEX
  VSB - VISIBILITY



USA.gov is the U.S. government's official web portal to all federal, state and local government web resources and services.